"Pseudo-MPEC" for P21ZzUa

Created 2024 Oct 4 12:22:30 UT using Find_Orb

Click here for an explanation of pseudo-MPECs

 
 Astrometry: 
     P21ZzUa* C2024 09 29.38490000 11 09.239-02 03 02.65   ~9TBb 21.48wXNEOCPF52
     P21ZzUa  C2024 09 29.40805200 11 20.917-02 03 08.27   ~9TBb 21.31wXNEOCPF52
     P21ZzUa  C2024 09 29.41878700 11 26.393-02 03 10.77   ~9TBb 21.56wXNEOCPF52

Station data:
(F52) Pan-STARRS 2, Haleakala  (N20.707382 W156.255910)  US/Hawaii.
   Observers J. Bulger, T. Dukes, T. Lowe, A. Schultz, M. Willman. Measurers
   K. Chambers, S. Chastel, T. de Boer, L. Denneau, J. Fairlamb, H.
   Flewelling, M. Huber, C.-C. Lin, E. Magnier, Y. Ramanjooloo, R. Wainscoat,
   R. Weryk. 1.8-m Ritchey-Chrétien + CCD.

Orbital elements:  P21ZzUa
   Perihelion 2024 Aug 16.84541 +/- 36.9 TT = 20:17:23 (JD 2460539.34541)
Epoch 2024 Sep 29.0 TT = JDT 2460582.5   Earth MOID: 0.0053   Ju: 0.4055
M   2.82597390 +/- 18               Ve: 0.0751   Ma: 0.0190   Sa: 0.7255
n   0.06548490 +/- 0.164            Peri.  107.98458 +/- 56      AutoNEOCP
a   6.09595752 +/- 10.2             Node   184.21691 +/- 45
e   0.8846408 +/- 0.252             Incl.    5.34161 +/- 1.9
P  15.05091                H 26.75  G  0.15   U 11.5  SR
q 0.70322443 +/- 0.145    Q 11.4886906 +/- 43.1           (J2000 ecliptic)
From 3 observations 2024 Sept. 29 (48.8 min); mean residual 0".35
Residuals in arcseconds: 
240929 F52  .22+  .01+    240929 F52  .68-  .02-    240929 F52  .47+  .02+    

Ephemerides (geocentric):
Date (UTC) HH   RA             Dec           delta  r     elong  mag " sig PA
---- --------  ------------   ------------  ------ ------ -----  --- --------
2024 10 04 12  00 34 25.387   -02 09 47.37  .13072 1.1301 173.1 23.1  55d  91
2024 10 04 13  00 34 30.856   -02 09 47.59  .13128 1.1306 173.0 23.1  56d  91
2024 10 04 14  00 34 36.279   -02 09 47.77  .13184 1.1312 173.0 23.1  56d  91
2024 10 04 15  00 34 41.656   -02 09 47.92  .13240 1.1317 173.0 23.1  56d  91
2024 10 04 16  00 34 46.990   -02 09 48.04  .13296 1.1323 173.0 23.1  56d  91
2024 10 04 17  00 34 52.278   -02 09 48.13  .13352 1.1328 173.0 23.1  56d  91
2024 10 04 18  00 34 57.524   -02 09 48.19  .13408 1.1333 172.9 23.1  56d  91
2024 10 04 19  00 35 02.726   -02 09 48.21  .13465 1.1339 172.9 23.2  56d  91
2024 10 04 20  00 35 07.886   -02 09 48.20  .13521 1.1344 172.9 23.2  56d  91
2024 10 04 21  00 35 13.003   -02 09 48.16  .13577 1.1350 172.9 23.2  56d  91
2024 10 04 22  00 35 18.080   -02 09 48.09  .13633 1.1355 172.9 23.2  56d  91
2024 10 04 23  00 35 23.115   -02 09 47.99  .13689 1.1360 172.8 23.2  56d  91
2024 10 05 00  00 35 28.110   -02 09 47.86  .13745 1.1366 172.8 23.2  56d  91
2024 10 05 01  00 35 33.065   -02 09 47.70  .13801 1.1371 172.8 23.2  56d  91
2024 10 05 02  00 35 37.980   -02 09 47.50  .13858 1.1377 172.8 23.2  57d  91
2024 10 05 03  00 35 42.856   -02 09 47.28  .13914 1.1382 172.8 23.2  57d  91
2024 10 05 04  00 35 47.694   -02 09 47.03  .13970 1.1387 172.7 23.2  57d  91
2024 10 05 05  00 35 52.494   -02 09 46.75  .14026 1.1393 172.7 23.3  57d  91
2024 10 05 06  00 35 57.256   -02 09 46.44  .14083 1.1398 172.7 23.3  57d  91
2024 10 05 07  00 36 01.981   -02 09 46.10  .14139 1.1404 172.7 23.3  57d  91
2024 10 05 08  00 36 06.669   -02 09 45.73  .14195 1.1409 172.7 23.3  57d  91
2024 10 05 09  00 36 11.321   -02 09 45.33  .14251 1.1415 172.6 23.3  57d  91
2024 10 05 10  00 36 15.937   -02 09 44.90  .14308 1.1420 172.6 23.3  57d  91
2024 10 05 11  00 36 20.518   -02 09 44.45  .14364 1.1425 172.6 23.3  57d  91
2024 10 05 12  00 36 25.063   -02 09 43.96  .14420 1.1431 172.6 23.3  57d  91
2024 10 05 13  00 36 29.574   -02 09 43.45  .14477 1.1436 172.6 23.3  58d  91
2024 10 05 14  00 36 34.051   -02 09 42.91  .14533 1.1442 172.5 23.4  58d  91
2024 10 05 15  00 36 38.494   -02 09 42.34  .14589 1.1447 172.5 23.4  58d  91
2024 10 05 16  00 36 42.904   -02 09 41.75  .14646 1.1452 172.5 23.4  58d  91
2024 10 05 17  00 36 47.280   -02 09 41.13  .14702 1.1458 172.5 23.4  58d  91
2024 10 05 18  00 36 51.624   -02 09 40.48  .14759 1.1463 172.4 23.4  58d  91
2024 10 05 19  00 36 55.935   -02 09 39.80  .14815 1.1469 172.4 23.4  58d  91
2024 10 05 20  00 37 00.215   -02 09 39.10  .14871 1.1474 172.4 23.4  58d  91
2024 10 05 21  00 37 04.463   -02 09 38.37  .14928 1.1480 172.4 23.4  58d  91
2024 10 05 22  00 37 08.680   -02 09 37.61  .14984 1.1485 172.4 23.4  58d  91
2024 10 05 23  00 37 12.866   -02 09 36.83  .15041 1.1490 172.3 23.4  58d  91
2024 10 06 00  00 37 17.021   -02 09 36.02  .15097 1.1496 172.3 23.5  59d  91
2024 10 06 01  00 37 21.146   -02 09 35.18  .15154 1.1501 172.3 23.5  59d  91
2024 10 06 02  00 37 25.242   -02 09 34.32  .15210 1.1507 172.3 23.5  59d  91
2024 10 06 03  00 37 29.308   -02 09 33.43  .15267 1.1512 172.3 23.5  59d  91
2024 10 06 04  00 37 33.345   -02 09 32.51  .15324 1.1518 172.2 23.5  59d  91
2024 10 06 05  00 37 37.353   -02 09 31.57  .15380 1.1523 172.2 23.5  59d  91
2024 10 06 06  00 37 41.332   -02 09 30.61  .15437 1.1528 172.2 23.5  59d  91
2024 10 06 07  00 37 45.283   -02 09 29.62  .15493 1.1534 172.2 23.5  59d  91
2024 10 06 08  00 37 49.207   -02 09 28.60  .15550 1.1539 172.1 23.5  59d  91
2024 10 06 09  00 37 53.103   -02 09 27.56  .15606 1.1545 172.1 23.5  59d  91
2024 10 06 10  00 37 56.971   -02 09 26.50  .15663 1.1550 172.1 23.5  59d  91
2024 10 06 11  00 38 00.813   -02 09 25.41  .15720 1.1556 172.1 23.6  60d  91